Terug naar catalogus

STARLINK-2404

ActiefCommunicatieVLEO
NORAD 48093·PAYLOAD·🇺🇸 United States

Gelanceerd Apr 7, 2021 vanaf Cape Canaveral Space Force Station

Loading…

Volgende Passages (komende 24 uur)

TLE

VersSource: CelesTrak SupGP

Epoch: Sep 14, 2026, 21:33 UTC

1 48093C 21027B   26257.89840278 -.00032606  00000+0 -10484-2 0  2578
2 48093  53.1590 354.4004 0001250  83.4190 232.1735 15.31721166    19

Volg STARLINK-2404 in realtime met AllMySat

Download on the App Store